Theta_e
345 343 340 338 338 337 337 339 341 343 343 344 345 345 344 345 346 347 347 348 350 351 351 350 351 350 347 345 344 344 344 345 345 345 344 345 344 343 344 344 343 343 343 343 344 346 349 350 351 352 350 349 349 348 349 350 352 351 350 349 348 349 349 348 348 347 346 347 346 343 343 340 335 336 341 344 344 344 343 344 345 345 345 346 346
345 344 343 342 342 341 339 339 341 343 344 344 345 346 346 347 349 351 350 349 350 351 350 349 351 352 351 347 343 342 344 345 345 345 345 345 344 343 344 344 344 343 343 343 344 346 349 350 352 354 351 347 345 347 349 350 351 350 349 348 348 347 347 348 348 348 348 348 347 346 344 340 334 331 336 342 344 344 344 344 345 345 346 346 345
344 344 344 344 344 343 342 341 340 341 343 343 345 349 352 351 352 353 352 350 351 352 351 350 351 352 352 350 346 343 343 345 348 348 348 347 345 345 344 343 345 345 343 343 345 346 349 350 351 353 352 347 347 350 351 351 351 349 348 347 346 347 347 347 347 349 349 347 346 345 343 339 334 332 336 343 345 345 345 345 345 345 345 344 343
343 343 344 344 345 344 344 342 341 341 341 342 345 351 355 354 353 353 353 353 352 352 352 352 351 351 351 351 350 348 346 348 351 352 352 351 350 349 347 345 346 345 343 343 344 344 345 346 346 349 350 349 351 353 352 351 350 349 347 346 347 348 348 348 348 348 348 346 343 342 340 337 335 334 340 345 345 345 345 346 345 344 343 343 343
344 342 343 344 344 344 344 343 343 342 341 342 346 351 354 354 353 353 354 354 353 352 353 353 352 353 352 352 352 351 350 351 352 353 353 353 352 352 351 350 349 348 347 347 346 345 344 344 346 349 350 350 350 351 351 351 350 349 349 349 348 348 347 347 347 346 345 344 341 340 340 339 337 336 342 345 345 344 345 344 343 343 342 343 344
344 341 341 342 344 344 343 343 344 344 342 342 345 349 353 353 352 352 353 354 354 353 352 353 353 353 353 353 353 353 353 353 353 353 353 353 352 352 352 352 351 351 350 350 349 348 347 346 347 349 350 348 348 349 351 351 350 349 350 349 348 347 347 346 345 344 344 343 343 344 342 340 339 339 342 345 345 345 344 342 341 342 344 344 344
348 345 343 344 346 346 345 344 346 347 346 344 344 346 351 353 353 353 353 353 353 353 352 353 353 353 354 354 353 353 353 352 352 352 353 354 353 351 351 352 352 351 351 351 351 351 351 349 350 351 351 351 350 351 351 350 349 349 348 348 348 348 347 346 345 345 345 345 346 345 342 340 341 341 342 344 344 344 343 342 341 343 345 345 345
354 352 352 351 351 349 347 347 349 350 349 349 348 347 349 351 352 352 353 353 353 352 352 352 353 353 354 352 351 351 350 348 347 348 349 352 354 353 351 352 353 354 353 353 353 353 353 352 353 353 352 352 351 351 350 349 348 347 347 348 348 348 347 347 347 347 347 347 344 342 339 339 340 342 342 343 342 342 343 343 344 345 345 345 346
353 352 353 353 353 352 350 350 351 351 351 351 352 351 350 350 350 351 352 352 352 352 352 352 352 352 352 352 351 352 351 349 346 344 343 344 349 353 354 353 355 354 353 353 353 354 353 353 353 352 351 351 350 350 348 347 347 347 347 348 348 347 347 348 348 348 347 345 342 339 340 340 341 342 341 341 342 343 343 344 346 347 347 346 346
351 350 350 350 351 353 353 351 351 351 351 352 353 352 352 351 351 351 350 350 350 351 351 351 351 351 351 352 352 352 352 350 349 348 346 343 345 351 354 354 354 354 353 353 353 353 353 354 353 352 351 351 350 349 347 346 346 345 345 346 347 347 348 348 348 348 347 345 343 342 342 341 341 341 341 342 343 344 345 346 347 348 347 347 346
349 348 347 348 349 351 351 351 350 351 351 351 351 351 351 352 351 350 349 349 349 350 351 351 351 351 351 351 352 352 351 350 350 349 348 347 347 350 352 353 353 352 351 350 350 352 353 353 353 351 351 351 349 348 347 347 346 345 344 346 347 348 348 348 348 348 348 347 346 345 345 343 342 343 344 344 345 346 347 348 349 349 348 347 346
347 347 347 348 350 350 350 350 350 351 351 351 351 351 350 350 350 350 349 350 349 350 351 351 351 351 350 350 351 351 351 350 350 349 348 350 350 350 351 353 352 350 350 348 348 349 351 350 350 349 349 349 348 348 348 348 348 347 346 346 347 347 348 348 348 347 348 348 348 348 348 347 345 345 345 346 346 347 347 348 349 348 347 347 348
349 348 347 346 346 349 350 349 349 349 349 350 350 350 350 350 350 350 350 350 349 350 350 351 351 350 350 349 350 350 350 349 348 348 350 352 352 351 351 352 352 351 350 349 348 347 347 347 347 347 346 348 348 348 348 348 347 347 348 348 348 348 348 348 348 348 349 350 350 350 349 348 346 346 347 348 348 348 348 348 347 347 346 348 349
347 349 349 346 344 346 350 351 351 351 350 349 349 349 350 350 350 350 351 350 349 350 350 350 350 350 350 349 349 349 349 348 348 348 351 352 352 352 351 350 351 352 351 349 348 347 346 345 345 345 346 348 348 348 348 347 347 347 348 349 348 348 347 347 348 349 349 350 351 350 349 347 346 347 348 348 349 349 349 347 346 346 348 349 349
342 347 350 349 347 347 349 352 353 353 353 352 351 349 349 350 351 351 350 350 350 350 351 351 351 351 351 351 351 350 349 348 348 349 351 352 352 352 350 349 349 351 352 351 349 349 348 346 345 344 345 346 346 347 346 346 345 345 345 346 346 346 346 346 347 347 347 348 349 348 347 346 348 349 349 349 349 348 347 346 346 347 349 349 349
345 348 351 350 348 347 348 350 352 353 354 353 352 349 349 351 352 351 351 351 351 351 352 352 352 351 351 351 350 351 350 349 349 349 350 351 351 351 350 348 347 349 351 351 350 349 349 348 346 345 344 343 343 343 343 343 343 343 343 344 344 345 346 346 346 347 348 348 348 347 347 348 349 350 350 349 348 346 345 346 347 348 350 349 348
350 351 351 351 350 349 350 351 351 351 351 351 349 347 347 349 350 351 353 353 353 353 352 352 352 351 351 351 351 350 350 348 348 349 349 350 350 350 350 348 346 345 347 349 350 350 349 348 347 346 345 344 343 342 342 341 340 340 342 343 344 345 347 348 348 349 349 348 348 347 348 349 350 350 349 347 345 345 346 347 348 349 349 348 347
350 350 350 351 350 350 350 349 349 349 349 349 348 347 347 348 348 350 352 352 352 352 352 352 352 351 350 350 349 349 349 348 346 346 347 349 351 351 349 347 345 345 345 347 349 350 350 349 348 347 346 346 345 345 342 340 340 342 343 344 345 348 349 350 349 349 348 348 348 348 349 350 349 347 346 344 345 347 348 349 349 349 348 348 347
344 345 346 347 347 347 347 347 347 347 347 347 348 348 348 349 349 350 350 350 350 351 350 351 352 351 350 350 349 349 349 350 349 347 348 349 351 350 348 346 346 346 346 347 349 350 350 350 349 348 347 346 347 347 346 343 343 344 345 345 347 349 349 349 348 348 347 347 347 347 347 347 346 345 344 345 346 348 348 349 348 347 346 344 340
337 338 340 342 344 344 344 344 342 342 342 344 345 347 347 347 348 349 349 349 349 349 347 348 349 349 349 349 349 350 350 350 350 350 350 350 350 350 349 348 347 347 347 347 348 349 349 350 349 348 348 348 349 349 348 348 347 348 348 348 348 348 348 348 346 346 344 343 341 341 342 342 344 345 345 345 345 346 346 346 344 342 339 334 327
334 334 336 337 339 339 340 339 338 337 338 339 340 342 343 344 345 346 346 347 347 347 346 346 346 347 346 346 347 348 348 348 348 348 349 349 349 350 350 350 349 349 348 347 347 349 350 350 350 350 350 350 349 348 347 348 349 350 350 348 348 349 348 344 341 338 335 332 331 333 338 341 343 345 346 346 346 345 343 339 335 330 327 323 319
331 331 333 335 335 336 336 334 334 335 336 338 339 340 341 342 343 343 343 344 344 345 345 344 344 344 345 345 345 345 345 345 345 345 346 346 347 348 349 349 350 349 349 349 349 350 351 350 350 350 350 349 347 347 348 349 350 350 349 348 349 346 341 334 330 326 323 325 329 334 339 342 344 345 343 341 337 333 328 324 321 319 319 322 326
328 328 333 335 334 334 334 333 332 333 335 336 338 339 339 340 340 340 340 341 342 343 343 342 342 343 342 343 343 343 343 343 343 343 344 345 345 346 347 347 348 349 349 350 350 349 349 348 347 347 348 348 348 348 349 349 350 349 348 347 344 335 325 319 317 318 323 331 335 338 340 341 341 339 334 329 325 321 318 315 315 317 321 327 332
321 321 327 332 333 333 333 333 332 332 333 334 336 337 338 338 338 338 338 337 337 338 337 337 337 337 337 338 338 339 339 340 341 341 342 343 343 344 345 346 347 347 348 347 348 348 347 347 347 347 348 348 349 349 349 348 346 342 337 333 328 319 315 315 318 324 333 339 340 340 340 338 335 332 329 327 325 323 319 315 315 319 323 326 327
315 315 316 321 326 329 331 332 333 332 332 332 333 334 335 336 337 337 337 337 337 336 336 336 336 335 334 333 332 333 333 334 335 336 337 338 338 340 341 343 344 344 344 343 343 344 344 344 345 346 346 345 344 343 341 337 332 326 321 319 317 315 319 326 331 336 340 342 341 340 337 334 332 331 330 330 328 325 321 316 314 317 319 319 318
316 317 317 318 320 323 327 329 331 331 331 332 332 331 332 333 335 335 335 334 335 335 335 336 336 336 336 334 331 330 331 332 331 331 332 333 333 333 334 334 334 334 334 334 335 336 336 336 337 337 336 335 335 335 332 327 323 321 322 322 320 323 331 336 338 341 342 341 339 336 334 333 333 332 331 330 328 325 321 317 315 315 315 314 314
318 318 319 321 321 322 323 324 325 326 326 329 331 332 331 330 330 333 335 334 333 332 331 333 334 335 335 335 334 333 333 333 333 332 331 331 331 330 330 330 330 329 326 322 321 324 325 325 328 331 331 330 332 332 330 327 324 325 326 326 327 332 337 337 336 338 339 337 335 333 333 332 332 331 330 328 325 321 317 316 316 317 316 315 314
320 319 318 319 320 322 321 320 321 322 321 323 326 327 327 325 322 325 330 331 329 325 323 325 329 331 333 334 334 333 333 333 333 333 331 331 332 331 331 330 330 327 321 314 310 311 313 312 316 320 322 322 323 326 327 327 328 329 332 332 334 336 336 334 334 335 335 333 333 332 332 331 330 329 327 323 320 317 317 317 317 317 317 316 316
320 321 321 320 320 320 320 320 321 321 321 322 321 319 318 317 312 312 319 325 327 325 321 322 326 329 330 332 332 332 332 332 332 332 332 331 330 328 325 322 318 315 311 307 306 306 306 306 309 313 313 313 318 326 331 333 334 335 336 336 336 336 334 333 334 334 333 331 331 331 330 329 327 324 321 318 317 318 318 318 318 318 318 317 317
322 323 324 324 323 322 322 323 323 322 320 320 318 313 310 309 308 307 312 319 323 324 322 322 324 324 324 325 327 328 328 328 328 326 325 323 320 316 312 309 307 306 306 306 306 305 306 311 318 322 322 321 324 330 333 333 334 336 338 337 336 335 334 333 333 332 331 330 329 328 327 325 322 319 316 316 317 318 318 318 318 317 317 316 316
322 323 324 324 324 324 323 321 321 323 323 320 318 313 310 311 313 312 309 311 314 314 313 313 314 312 311 312 314 314 315 315 314 313 311 309 308 307 306 305 306 306 306 306 306 306 310 319 327 329 329 328 330 332 333 333 334 336 336 334 333 332 331 331 331 329 328 328 327 326 324 322 320 317 316 316 317 319 319 318 317 317 316 315 315
317 320 322 322 323 323 320 314 311 314 317 317 316 314 314 316 318 315 312 311 313 313 312 312 312 311 310 309 309 308 308 309 308 307 306 306 306 306 306 307 308 308 309 312 311 310 314 324 328 328 328 329 329 330 331 331 331 331 330 330 330 329 328 328 327 326 326 325 325 324 323 322 320 317 316 317 318 318 318 318 317 316 315 315 314
311 312 314 314 314 313 312 308 305 305 307 309 311 314 316 317 317 317 316 315 316 317 317 315 314 313 311 310 311 311 310 309 309 308 307 307 307 307 307 310 312 313 314 317 317 316 320 326 327 326 327 328 327 328 328 328 327 327 327 327 326 325 325 325 324 323 324 323 323 323 322 321 320 318 317 317 318 317 317 317 316 316 315 314 314
310 309 309 309 308 308 307 306 306 305 304 305 307 311 312 314 317 320 320 319 319 321 320 319 317 314 311 311 314 314 312 310 310 309 308 307 307 308 311 316 317 317 318 320 321 321 324 326 326 325 325 326 325 326 326 326 326 326 325 325 325 324 324 324 323 323 323 323 323 322 322 321 320 319 318 317 317 317 317 317 316 316 315 314 314
311 311 311 311 310 310 311 311 310 310 309 307 308 310 311 314 319 322 321 319 320 322 322 321 319 316 314 315 317 316 314 312 312 312 312 311 309 309 314 320 322 321 321 323 324 324 325 326 326 325 325 324 324 324 324 324 325 324 324 324 324 324 324 323 323 323 323 323 322 322 321 320 320 319 318 317 317 317 317 316 316 316 315 315 315
312 313 314 314 313 313 314 315 314 314 313 312 311 311 312 315 319 321 321 320 321 322 322 321 319 317 316 318 319 318 316 315 314 314 315 316 314 314 318 322 323 322 323 323 324 325 325 325 325 325 325 324 324 323 323 323 323 323 323 323 323 323 323 323 323 322 322 322 321 321 320 320 319 319 318 318 317 317 317 317 316 316 316 316 315
314 314 315 315 315 315 315 315 315 315 314 314 314 313 313 315 317 318 319 320 320 319 319 319 318 318 318 319 319 319 318 317 316 315 315 316 315 316 318 321 321 321 322 322 323 323 324 324 324 324 323 323 323 323 323 323 323 323 323 322 322 322 322 322 322 322 321 321 321 320 320 320 319 318 318 317 317 317 317 316 316 316 316 315 315
314 315 315 315 315 315 315 315 315 315 315 315 315 315 315 315 315 315 317 318 318 317 317 319 319 319 319 319 319 318 317 317 317 316 315 314 313 313 315 318 320 320 320 321 321 321 322 322 322 322 322 322 322 322 322 322 322 322 322 322 322 322 322 322 322 321 321 321 321 320 320 319 319 318 318 317 317 317 316 316 316 316 315 315 314
314 314 315 315 315 315 315 315 314 315 315 315 315 316 316 316 315 316 317 316 316 316 318 319 319 319 318 318 317 317 316 316 316 315 314 313 311 310 312 316 319 319 318 319 319 319 320 320 320 320 320 320 320 320 320 320 320 321 321 321 321 321 321 321 321 321 321 321 320 320 319 319 319 318 318 317 317 317 316 316 316 315 315 315 314
314 313 314 314 314 314 314 314 314 314 314 314 315 316 317 316 316 316 317 317 316 317 317 318 318 318 317 317 317 316 316 315 314 313 312 311 311 310 312 315 317 318 317 317 317 317 318 318 318 318 318 318 318 318 318 318 317 317 317 317 318 318 318 318 319 319 319 319 319 319 319 319 318 318 317 317 317 316 316 315 315 315 314 314 313
316 315 314 314 315 314 313 313 313 313 313 314 315 316 317 316 315 315 316 316 315 316 316 316 316 316 316 316 315 315 314 312 311 311 311 311 310 310 311 312 314 315 315 315 315 315 316 316 316 316 316 316 316 315 315 315 314 314 314 314 313 313 313 313 313 313 314 315 315 316 316 316 316 316 316 315 315 315 314 314 314 313 311 310 308
319 317 315 313 314 314 314 314 313 313 313 314 315 316 317 316 314 313 313 314 314 314 315 315 315 315 314 314 313 312 312 311 310 310 310 310 311 311 311 311 311 312 312 313 313 313 313 313 313 314 314 314 314 313 313 313 313 313 312 312 311 311 310 310 309 309 309 309 310 310 311 311 311 311 311 310 310 310 309 309 308 306 305 304 303
319 318 316 315 314 315 316 315 314 313 313 315 316 317 316 316 315 314 314 314 313 313 313 314 314 313 313 312 312 311 310 310 310 309 309 310 310 310 310 310 310 310 310 310 310 310 310 310 310 311 311 311 311 311 310 310 310 310 310 310 309 309 308 308 308 307 307 306 306 306 306 306 305 305 305 305 304 304 303 302 302 301 300 300 300
319 317 316 316 316 316 316 316 316 315 315 316 317 316 316 315 315 314 314 314 312 311 312 312 313 312 312 311 311 310 310 309 309 309 309 308 308 308 308 308 308 308 308 308 308 308 308 308 308 308 308 308 308 307 307 307 307 306 306 306 306 305 305 305 305 305 304 304 303 303 302 302 302 301 301 301 300 300 300 299 299 299 299 300 300
318 318 316 316 316 316 316 316 316 315 315 316 316 316 315 314 313 313 313 312 311 311 311 312 312 311 311 310 310 309 309 309 308 308 308 307 307 307 307 307 307 307 307 306 306 306 306 306 306 306 306 305 305 305 304 304 304 303 303 303 303 303 302 302 302 301 301 300 300 300 300 299 299 299 299 299 299 299 299 299 300 300 300 301 301
318 318 316 316 316 316 316 315 315 314 314 315 314 314 313 313 312 312 312 311 311 311 311 311 311 310 310 309 309 309 308 308 307 307 307 307 306 306 306 306 306 306 305 305 305 304 304 304 303 303 303 302 302 302 302 302 301 301 301 301 301 300 300 300 299 299 298 298 298 298 297 297 298 298 298 299 299 299 300 300 300 301 301 301 302
317 317 316 315 315 315 315 315 314 313 313 313 313 313 312 312 312 311 311 311 310 310 310 310 310 310 309 309 308 308 307 307 306 306 306 305 305 305 305 305 304 304 304 304 303 303 302 302 301 300 300 299 300 300 300 300 300 300 300 299 299 299 298 298 298 297 297 297 296 296 296 297 297 298 298 299 299 299 300 300 301 301 301 301 301
316 316 315 315 314 314 314 313 312 312 312 312 312 312 312 311 311 311 311 310 310 309 309 309 309 309 308 307 307 306 305 305 305 305 305 304 304 304 304 303 303 303 302 302 302 301 301 300 299 298 298 298 298 299 299 299 299 299 298 298 297 297 297 296 296 296 296 295 295 296 296 297 297 298 298 299 299 299 300 300 301 301 301 301 301
314 314 314 314 312 312 312 311 311 310 311 311 311 310 310 310 310 309 309 309 309 308 308 308 307 307 306 305 305 305 304 304 304 304 303 303 303 303 302 302 302 301 301 301 300 300 299 298 297 297 297 297 298 298 298 298 298 298 297 297 296 296 296 295 295 295 295 295 295 296 296 297 297 298 298 299 299 300 300 301 301 301 301 301 301
313 313 313 312 311 310 310 310 310 309 310 310 310 309 309 308 309 308 308 308 308 307 307 306 306 305 305 304 304 304 303 303 303 303 302 302 302 302 301 301 300 300 299 299 298 298 297 296 296 296 296 296 297 297 297 297 297 297 296 296 295 295 295 295 295 295 295 295 296 296 296 297 297 298 299 299 300 300 301 301 301 301 301 301 301
312 312 311 310 309 309 309 309 309 309 309 309 309 308 308 308 308 307 307 307 307 306 306 305 305 304 304 303 303 303 302 302 302 302 301 301 300 300 300 299 299 299 298 297 297 296 295 295 295 295 295 295 295 295 295 295 296 296 295 295 295 294 294 294 294 295 295 296 296 296 296 297 297 298 299 299 300 301 301 301 301 301 301 302 302
Wind_Speed
27 27 27 27 26 26 26 25 25 24 23 22 21 20 19 18 18 17 16 16 16 16 16 15 14 14 14 15 15 14 15 15 13 13 13 12 11 11 10 9 10 11 11 11 11 11 11 9 8 7 8 9 9 7 6 6 6 5 6 7 7 6 6 7 10 11 10 9 10 11 11 10 9 7 6 7 8 9 10 10 11 13 15 18 20
27 27 26 26 26 25 25 25 25 24 23 22 21 19 18 18 16 16 16 16 16 16 16 15 14 13 14 15 15 15 14 14 13 13 13 13 12 11 10 9 10 11 11 11 11 12 12 11 8 8 8 8 6 5 5 6 7 6 5 5 5 6 8 9 10 13 13 11 11 13 13 12 12 11 9 9 10 11 11 11 13 15 18 21 22
26 26 26 26 25 24 24 24 25 24 23 23 21 19 17 17 16 16 15 15 15 15 15 15 15 14 14 15 15 14 14 14 13 12 12 13 13 11 10 9 10 11 11 11 11 12 12 11 10 9 8 7 6 6 6 7 7 6 4 4 5 6 8 10 11 12 14 14 14 14 15 15 16 14 10 9 11 12 13 14 15 17 19 21 23
27 26 26 26 25 25 24 24 24 24 24 24 22 20 18 18 17 17 16 15 14 14 15 15 15 16 16 16 15 15 14 15 13 11 11 12 12 11 10 10 11 12 12 11 11 11 11 10 9 8 7 8 8 7 7 8 8 7 5 5 7 8 8 9 10 11 12 15 15 15 15 17 17 14 9 10 12 13 14 16 18 19 20 21 23
28 27 26 26 25 25 25 24 24 24 24 24 23 22 21 20 19 19 19 18 16 16 16 16 16 17 17 16 15 15 14 14 13 13 12 12 12 12 11 11 11 12 12 11 10 11 11 10 9 8 8 8 9 8 7 8 9 9 9 8 9 9 9 9 11 11 12 15 15 15 16 17 16 13 10 12 14 15 16 17 18 20 21 23 24
26 27 27 26 25 24 24 24 25 24 24 24 24 23 21 19 19 19 19 18 18 17 17 17 17 16 17 17 17 17 16 16 15 15 14 14 13 13 12 12 11 11 12 11 10 10 10 10 8 8 7 7 6 7 9 10 11 10 10 10 11 12 11 12 13 13 13 14 15 17 18 18 16 14 13 15 17 19 19 19 19 21 23 25 25
23 24 24 23 21 21 22 22 22 21 21 21 22 23 23 21 20 20 19 18 17 17 18 17 17 19 21 21 20 19 19 18 18 19 18 16 16 14 13 13 12 11 11 10 9 8 8 8 7 6 7 7 7 8 11 12 14 14 12 11 12 14 14 14 14 14 15 16 18 20 20 18 16 16 16 17 18 19 21 22 22 23 25 26 26
26 24 24 24 22 19 18 18 18 17 17 16 15 18 21 21 20 20 21 20 20 19 19 19 20 23 24 21 19 18 17 17 17 18 18 19 18 17 15 14 13 12 12 12 11 10 9 9 9 9 10 10 10 12 12 13 13 13 12 11 13 14 15 14 15 15 17 19 20 20 19 17 16 17 17 18 19 20 20 23 25 26 26 26 25
26 25 25 26 26 24 20 19 18 17 16 16 15 15 17 19 19 20 21 22 23 23 22 21 22 24 24 21 19 19 19 18 17 16 16 18 19 18 18 17 16 14 14 14 13 13 12 12 13 12 11 11 13 14 13 12 11 10 8 9 11 13 14 15 16 18 19 20 19 17 17 17 17 18 19 19 20 21 21 22 24 25 27 27 24
24 24 24 26 27 27 26 24 22 21 20 20 20 19 19 21 22 22 22 23 24 25 24 23 22 22 23 22 21 21 20 19 18 16 15 16 17 18 19 19 19 17 16 15 15 15 15 16 16 13 11 11 13 13 12 11 12 11 10 11 13 15 16 16 18 18 18 17 15 15 16 18 17 18 19 20 20 21 22 22 24 25 26 27 24
19 17 19 23 25 25 26 25 22 22 22 20 21 22 23 24 24 23 23 23 24 24 26 26 23 22 22 22 22 22 21 20 19 17 17 16 16 16 17 18 19 18 16 15 15 15 15 16 16 14 13 14 14 13 12 12 12 13 14 13 14 17 18 18 18 17 16 15 15 16 18 19 18 18 19 20 20 21 21 22 23 25 25 25 24
18 14 14 20 24 24 26 27 23 21 20 18 16 18 21 23 23 23 23 24 22 22 24 26 24 21 21 22 22 23 22 21 20 19 18 18 16 15 16 18 18 17 16 14 12 13 14 13 13 13 15 15 14 13 13 12 12 13 14 13 14 16 17 18 18 17 17 17 18 18 20 20 20 19 19 20 20 20 21 21 23 24 22 20 21
18 17 17 19 22 23 27 29 27 25 25 22 19 17 19 21 22 22 23 24 24 23 24 25 24 22 21 20 21 22 23 22 21 20 20 19 17 17 18 20 19 18 17 15 13 13 13 14 15 15 15 15 14 14 15 15 15 14 13 13 13 15 16 17 18 19 19 19 20 20 20 20 21 20 18 19 19 20 21 22 21 20 18 17 18
16 18 20 21 22 23 27 29 28 27 28 28 26 24 24 24 25 24 23 24 25 25 24 24 23 23 22 21 22 22 23 22 21 20 21 20 19 19 21 22 22 21 20 17 16 16 15 15 17 17 16 15 15 15 16 17 17 16 15 15 16 16 17 18 19 19 20 20 21 21 20 20 21 19 17 17 19 20 22 21 18 16 14 15 16
19 20 22 24 24 26 28 30 29 28 28 29 28 28 28 29 29 29 28 27 26 26 25 24 23 22 22 22 23 23 22 22 20 20 21 22 22 23 23 23 23 24 23 20 19 18 17 17 18 18 18 18 18 18 18 18 19 19 19 19 19 19 19 19 20 20 20 21 21 21 21 21 20 18 17 18 19 19 18 16 14 13 14 15 15
22 22 23 24 25 27 28 27 27 27 26 28 29 29 30 31 31 32 32 31 29 26 24 24 23 23 23 23 23 23 23 22 21 20 22 24 24 25 26 24 21 23 24 23 21 21 20 20 19 18 19 19 20 21 21 21 21 20 20 20 20 20 20 20 20 20 20 20 21 21 21 20 19 18 19 20 19 17 14 12 12 13 14 15 16
19 21 21 21 23 25 25 22 20 21 22 24 27 28 30 31 31 31 30 28 26 26 27 27 26 25 25 25 24 24 24 23 23 21 22 24 25 26 27 25 23 23 24 24 24 23 23 22 21 20 20 20 21 21 21 22 22 21 21 20 20 20 20 20 20 20 20 20 20 20 19 18 18 18 18 18 17 15 13 13 12 13 14 16 17
10 13 15 15 15 17 19 19 18 18 19 21 23 26 29 30 30 29 27 25 26 27 29 30 27 24 24 25 24 24 25 25 25 24 23 24 25 25 24 24 25 24 23 23 26 27 26 25 24 24 23 23 22 22 21 21 22 21 21 20 19 19 19 19 19 18 18 18 17 17 17 18 17 16 15 14 13 11 10 11 11 11 13 15 18
6 6 7 9 9 9 11 12 12 11 14 16 17 20 24 26 26 26 25 25 27 27 24 24 25 24 24 25 24 25 26 26 26 26 24 23 22 20 20 21 23 23 23 23 26 29 29 29 28 26 26 25 24 23 21 21 21 21 21 20 20 19 18 18 17 17 17 16 16 16 16 15 14 13 12 11 10 9 8 9 10 12 14 16 19
11 8 6 6 7 7 7 6 4 4 6 9 12 15 18 20 20 22 23 24 25 24 21 20 21 22 21 22 22 25 26 24 23 23 23 23 22 20 19 20 21 21 22 23 25 28 30 29 28 27 26 26 25 23 22 21 22 22 21 21 20 19 18 17 17 17 16 15 13 12 12 12 12 12 12 10 9 9 10 11 12 14 16 17 18
12 10 8 7 6 5 5 3 1 2 1 1 3 7 10 12 13 14 16 16 16 16 15 15 14 14 15 15 17 21 22 21 20 20 20 21 23 22 22 22 22 22 23 24 26 27 27 25 25 26 26 25 24 23 22 22 22 20 19 19 19 17 16 15 15 14 12 10 8 8 9 10 12 12 11 11 11 11 13 14 15 15 16 17 17
11 10 9 8 7 5 5 6 6 5 6 6 4 3 2 3 3 3 4 5 5 5 6 5 5 5 6 7 10 14 15 15 16 17 18 19 21 22 22 23 23 23 24 25 26 25 22 22 23 24 25 25 24 23 23 22 20 18 17 18 17 16 14 13 12 10 8 7 7 8 9 10 10 10 10 10 11 12 13 14 14 14 14 14 14
8 10 12 11 10 8 7 7 7 8 9 9 9 8 7 6 6 5 6 5 4 3 3 2 2 2 3 4 5 8 9 9 10 11 12 13 16 19 20 22 23 24 25 26 27 25 22 21 24 25 24 23 22 21 20 19 18 16 16 15 15 13 12 11 10 9 7 7 7 8 8 8 7 7 8 9 10 11 12 13 14 14 13 12 12
7 10 12 12 11 9 7 6 6 7 8 8 8 8 8 9 8 8 9 9 9 8 6 6 4 3 3 2 1 2 2 4 5 6 8 9 11 13 15 17 19 22 22 21 22 23 22 22 25 26 22 19 18 17 16 16 15 13 12 13 12 11 10 10 10 9 8 8 8 8 7 6 6 7 8 10 12 14 16 16 16 16 15 13 14
9 10 11 12 12 10 9 7 5 5 5 5 6 6 6 7 8 8 8 9 9 8 7 6 5 5 5 6 4 4 5 5 5 3 1 2 3 4 6 7 9 11 11 10 13 17 19 20 22 21 18 15 15 14 13 11 10 9 9 10 11 10 10 11 10 9 9 10 9 7 6 6 7 8 10 12 15 18 20 19 18 17 16 15 14
11 11 12 12 11 10 9 9 7 6 4 4 4 4 4 4 4 5 5 6 6 5 5 3 2 2 4 5 5 6 7 8 8 7 6 5 4 4 3 1 0 1 3 4 6 10 12 11 9 10 11 12 12 11 11 10 9 9 10 10 10 11 12 11 10 10 11 11 8 7 7 7 8 9 11 14 18 21 22 22 19 17 16 15 13
11 10 11 11 10 9 8 8 7 7 6 6 5 5 4 3 2 3 4 4 4 4 4 3 2 2 2 2 2 2 3 3 3 4 4 4 3 2 1 2 2 2 3 4 5 7 8 9 7 6 7 9 10 10 11 12 11 11 12 11 12 13 13 11 10 10 10 9 7 7 8 8 9 12 15 18 21 22 21 19 17 16 15 14 13
9 8 9 9 8 6 5 5 6 6 7 7 6 5 5 3 3 4 5 5 3 1 1 2 3 3 2 1 1 2 2 3 3 2 2 2 3 5 6 7 8 8 7 6 6 7 8 7 8 8 9 10 11 11 11 11 12 11 11 11 12 13 12 11 10 9 9 8 8 9 9 10 13 15 18 20 20 18 16 14 14 13 13 14 13
7 7 7 6 5 4 4 4 4 4 4 5 5 4 5 4 3 4 6 7 6 5 3 1 2 3 3 3 4 4 5 6 7 8 8 10 11 11 12 12 11 11 9 7 6 6 6 6 7 8 9 10 12 12 10 10 12 11 10 10 11 11 10 9 8 9 9 9 9 10 11 13 15 18 18 16 14 11 10 10 11 12 13 13 14
7 7 7 6 5 4 3 3 3 3 3 3 2 3 3 2 0 2 5 6 6 5 4 3 4 6 6 6 7 8 9 11 13 14 15 16 16 15 13 12 10 9 8 7 6 4 3 3 4 4 4 6 9 11 10 10 11 12 10 9 9 9 8 8 9 9 9 9 10 11 13 15 16 17 15 13 11 10 11 11 12 12 13 13 14
9 9 8 8 7 6 4 4 4 5 5 5 5 6 4 2 3 3 2 2 2 2 2 2 3 4 6 7 7 8 10 12 14 15 16 16 15 13 11 9 7 6 5 5 5 2 3 4 5 5 5 5 5 7 8 7 8 11 11 10 10 9 9 9 8 8 8 10 11 12 14 15 16 16 15 13 12 13 14 14 14 14 14 14 14
11 12 11 11 10 9 7 7 6 6 6 6 6 5 3 1 2 3 3 3 2 1 1 2 2 2 2 4 5 6 7 8 9 10 11 11 10 9 7 4 3 2 1 1 2 3 6 8 7 8 8 8 8 8 9 9 10 9 9 8 8 7 5 5 6 7 9 10 11 13 14 16 16 16 15 12 11 12 13 14 15 16 15 15 15
10 11 11 11 11 9 8 6 5 5 6 6 5 4 2 2 2 2 2 3 3 2 2 3 4 4 4 4 5 5 5 5 6 5 4 4 4 3 1 2 3 3 3 3 3 5 8 8 8 7 7 7 7 7 8 9 9 7 6 5 4 3 2 3 4 6 8 10 11 13 15 16 17 17 15 13 11 12 13 15 16 16 16 16 18
8 8 8 7 6 4 4 3 3 3 3 4 5 4 3 1 1 1 1 1 1 1 2 4 6 7 6 6 6 6 6 5 5 4 3 2 1 2 4 5 5 5 5 4 3 5 7 7 6 6 6 5 5 4 4 5 5 5 5 5 5 5 5 6 7 8 10 11 12 14 15 16 16 15 14 13 12 13 14 16 16 16 17 18 20
6 7 6 4 4 4 4 4 3 3 3 3 4 4 4 3 3 2 2 2 1 2 3 4 6 6 6 6 7 7 6 4 4 4 4 3 1 3 6 6 5 5 5 4 3 3 4 4 4 4 4 4 4 4 5 5 5 5 6 6 7 8 8 9 11 12 13 14 16 17 17 16 15 13 13 13 13 14 15 16 17 18 19 21 22
7 7 6 4 4 4 4 4 4 3 3 4 4 5 6 6 5 4 4 4 3 3 4 4 5 5 5 6 6 6 5 3 3 4 4 3 2 2 5 5 5 5 6 5 3 3 4 4 4 5 6 6 6 6 6 7 7 8 8 9 9 10 11 12 13 15 16 17 17 18 17 16 15 15 15 15 15 16 17 18 19 20 21 23 24
9 8 6 5 5 5 4 3 3 3 3 4 5 6 7 6 5 5 6 5 5 4 4 3 3 3 5 6 6 5 4 4 4 5 5 5 5 5 6 6 6 6 6 5 5 5 6 6 6 7 7 8 8 8 8 8 9 9 10 11 12 13 13 14 15 16 16 17 17 17 17 17 16 16 16 17 17 18 19 20 21 22 23 24 25
11 10 8 6 6 6 5 5 4 4 4 5 6 6 6 4 4 5 6 6 6 5 4 4 4 4 5 6 7 7 7 7 8 9 10 10 10 9 9 10 9 8 8 7 7 7 8 9 10 10 10 10 10 10 10 10 11 11 12 13 13 13 14 14 15 15 16 16 17 17 17 17 17 17 18 19 19 20 21 23 24 25 26 27 28
14 12 11 10 9 9 8 8 7 7 7 7 7 7 6 5 5 6 6 7 6 6 5 5 6 5 5 7 9 10 10 11 12 12 12 12 10 9 10 12 12 11 10 10 10 10 11 11 12 13 13 14 14 14 14 14 14 14 15 15 15 16 16 16 16 16 17 17 17 18 18 18 19 20 21 22 23 23 24 25 26 27 29 30 31
15 15 15 13 12 12 12 11 10 10 10 10 9 9 8 8 8 7 7 8 8 8 7 7 6 6 7 8 9 11 12 13 13 11 10 9 9 9 11 12 12 11 11 10 11 12 13 14 14 15 15 16 16 16 17 17 17 17 17 17 18 18 19 19 19 19 19 19 20 20 21 22 23 23 23 24 25 26 27 28 29 30 32 34 35
16 17 18 17 15 15 15 15 14 13 12 12 12 12 12 11 10 10 10 10 10 9 8 7 7 7 8 9 10 12 14 13 12 10 9 9 9 10 11 12 12 12 12 12 12 13 14 15 15 16 17 18 18 18 18 18 19 19 19 19 19 20 20 20 20 20 20 21 21 22 23 25 25 26 26 27 29 30 30 31 32 33 34 34 34
20 19 19 18 17 16 16 16 15 15 14 15 15 15 14 14 12 11 11 10 9 9 9 8 8 9 10 11 11 12 13 12 10 9 9 9 9 11 12 13 13 13 14 14 15 15 15 16 17 18 19 20 20 20 20 21 21 21 21 21 21 21 21 21 21 21 21 21 21 21 22 23 24 25 26 27 29 30 30 31 31 30 30 28 26
23 21 19 19 17 16 16 16 16 15 15 16 16 16 15 14 13 12 11 10 10 10 10 10 10 10 10 10 11 11 11 10 9 9 10 10 11 12 13 14 15 15 15 15 16 17 17 18 19 19 20 22 22 21 21 21 21 22 22 22 21 21 21 20 20 20 20 20 20 20 21 21 22 23 24 25 26 26 26 26 25 24 22 21 20
20 20 20 20 19 18 19 20 19 17 16 16 16 16 15 13 12 12 12 11 11 11 11 10 10 11 11 10 10 11 11 10 11 11 12 12 13 14 14 15 16 16 16 16 17 18 19 20 20 21 22 23 23 22 21 21 21 20 20 19 19 18 18 17 18 18 19 20 21 21 22 22 23 23 24 24 23 22 21 20 19 19 18 18 18
19 20 21 21 21 20 20 19 18 17 16 15 15 15 15 13 13 13 12 11 11 11 11 11 11 12 12 11 10 11 11 11 12 13 13 14 14 15 15 15 16 17 18 19 19 19 19 20 20 20 21 22 23 23 21 20 19 19 18 17 17 17 16 17 17 18 19 20 22 23 23 24 23 22 21 19 18 17 17 16 16 16 17 17 17
19 20 19 20 21 21 21 19 17 16 17 17 17 17 17 16 16 14 12 11 10 10 11 11 12 12 12 12 12 13 13 13 14 14 15 15 16 16 16 17 18 19 20 21 21 20 20 20 20 20 20 21 22 21 20 19 18 17 17 17 16 17 17 17 18 19 20 22 23 23 23 22 20 18 16 14 14 14 14 14 14 14 15 16 16
19 20 20 20 22 23 23 21 18 16 16 18 18 17 16 15 14 13 12 12 11 11 12 13 14 15 14 14 15 16 16 16 16 16 17 17 17 17 18 19 20 21 21 22 22 22 21 20 20 20 19 19 18 18 17 17 17 17 16 16 17 18 19 20 20 21 22 23 22 20 19 17 15 13 12 12 12 12 12 12 12 12 13 14 15
18 20 21 21 23 24 23 21 17 15 15 16 15 13 13 13 13 13 14 14 14 14 14 15 15 16 16 15 16 16 16 17 17 17 17 17 18 19 20 20 21 22 22 22 22 22 22 21 21 19 16 14 15 15 16 16 17 17 17 17 18 19 19 20 20 21 21 20 18 16 15 13 12 11 11 11 11 11 11 11 11 11 12 13 14
14 17 19 20 20 19 18 17 15 14 14 15 14 13 13 14 14 14 15 15 15 16 16 15 15 15 15 15 15 15 16 16 16 17 18 19 20 21 21 21 21 22 21 21 22 23 23 20 17 14 12 12 13 14 15 16 17 18 18 18 18 18 18 19 20 21 19 17 14 13 12 11 10 10 10 10 10 11 11 10 11 11 12 12 12
14 17 19 19 17 14 13 14 15 14 14 15 16 16 16 16 16 16 16 17 17 17 16 16 15 15 15 16 16 17 17 17 17 18 19 20 21 22 22 22 22 20 19 19 21 23 21 18 14 12 12 12 13 14 15 16 17 18 18 18 19 19 19 20 21 20 18 15 12 11 11 10 9 9 9 9 10 10 10 10 11 11 11 10 9
12 14 16 15 14 12 12 13 14 15 15 16 16 17 17 17 17 17 17 17 17 17 16 16 17 17 17 18 18 18 18 18 19 19 20 21 21 22 22 21 20 20 19 20 20 19 16 13 11 11 11 12 13 14 16 17 17 18 19 19 20 21 21 21 20 17 14 12 11 10 10 10 9 9 9 9 10 10 9 9 10 9 8 8 8
Wind_Direction
210 208 207 209 209 209 210 210 211 213 214 216 217 216 216 216 217 218 215 213 216 221 224 223 222 224 225 225 224 222 222 221 222 225 226 225 224 222 225 226 224 222 220 220 220 220 217 210 208 222 237 245 256 275 288 287 288 298 306 311 315 317 316 315 315 320 332 336 335 343 346 338 336 340 337 337 335 325 320 318 316 320 326 328 326
211 210 209 210 210 211 213 212 214 216 216 217 219 219 220 219 218 221 221 218 217 224 230 228 227 231 231 229 227 225 224 222 221 223 225 225 222 221 224 227 226 222 220 222 224 225 223 218 213 219 233 241 242 246 261 267 265 267 284 299 307 310 307 305 308 312 318 323 328 333 333 327 328 333 334 329 322 317 316 318 321 325 325 324 325
212 210 210 212 212 213 214 215 216 218 219 220 217 216 222 224 221 223 223 220 220 225 231 231 231 236 235 229 227 227 226 223 220 222 226 225 221 218 220 221 219 218 219 223 227 228 231 232 226 225 232 226 208 218 247 259 255 256 269 277 280 291 298 297 295 299 306 313 319 322 320 320 323 329 329 318 312 313 316 320 324 324 322 323 327
213 212 211 213 214 214 214 216 218 219 220 221 217 216 222 226 227 226 224 223 226 228 228 229 231 235 233 227 224 224 220 215 217 227 235 232 227 223 221 219 218 218 217 220 225 229 233 236 234 233 227 214 209 222 251 267 272 272 268 268 273 278 282 283 284 291 299 305 309 311 317 320 320 323 321 310 307 309 313 319 323 324 325 327 332
213 213 213 213 214 215 215 216 218 220 221 220 218 217 220 226 229 228 224 226 233 234 229 226 228 231 233 230 227 226 223 218 224 235 242 241 234 229 231 230 225 224 223 223 227 232 234 234 233 232 226 222 225 233 249 266 275 274 270 270 273 274 275 279 284 288 293 297 301 307 316 318 316 317 317 310 310 312 316 322 326 328 331 333 337
214 214 214 212 213 216 216 216 217 220 222 222 221 219 218 223 226 225 224 227 234 237 232 228 231 235 237 233 228 227 227 227 233 239 244 248 244 237 238 240 237 233 232 231 232 235 241 242 235 233 238 241 247 253 257 257 252 251 258 266 272 274 275 279 283 287 289 292 296 304 311 312 311 313 316 315 317 320 322 325 328 332 335 335 338
209 212 211 208 209 212 214 215 216 219 221 221 222 222 219 221 223 223 226 229 233 238 237 233 236 239 238 234 230 230 230 233 237 237 235 238 242 243 241 239 240 241 238 233 232 238 246 243 234 238 255 263 268 271 269 263 251 245 246 252 263 268 269 274 282 286 287 291 294 299 302 302 304 309 313 315 317 319 321 323 328 334 336 335 338
205 208 209 208 209 211 214 213 213 216 217 214 219 223 222 222 223 223 228 233 234 238 238 235 235 239 241 241 238 238 241 245 249 249 244 236 232 236 239 234 234 241 242 235 234 237 237 234 236 243 250 254 260 264 268 269 261 250 244 246 255 264 269 276 284 286 288 291 293 294 294 295 300 305 308 312 315 317 321 324 327 332 333 332 338
209 212 215 217 214 212 214 215 215 218 218 215 218 220 220 223 225 228 233 237 239 240 240 239 237 238 242 244 241 239 243 248 251 256 257 247 234 229 233 236 237 239 243 242 242 244 243 245 248 247 244 246 252 256 261 269 268 258 253 256 263 274 280 280 282 285 288 289 289 290 293 296 302 305 306 310 314 316 320 322 324 328 329 329 336
216 216 220 225 221 215 214 214 214 218 220 224 226 225 225 229 232 235 238 239 240 240 240 242 243 240 242 244 240 240 246 248 245 243 246 247 241 230 228 236 240 240 244 246 245 245 247 251 253 250 248 252 257 259 260 265 268 266 264 265 270 277 280 279 282 288 291 289 290 294 298 300 302 303 303 307 311 313 317 320 322 327 329 327 332
214 213 216 220 219 218 220 220 216 212 212 215 219 221 225 231 234 236 238 239 240 239 237 241 246 245 245 245 241 243 250 249 243 241 237 236 237 230 227 233 235 238 244 247 246 247 249 251 253 251 249 251 254 258 258 258 263 266 263 261 263 267 270 274 280 288 293 293 294 299 302 302 302 301 301 304 309 312 315 320 323 326 328 327 328
211 210 210 213 214 216 222 225 224 220 217 215 214 215 220 229 234 238 240 241 242 238 234 237 244 245 246 247 246 248 251 247 243 241 235 228 230 232 234 237 234 234 242 250 253 250 245 241 240 240 241 243 245 252 257 258 263 265 261 258 259 262 265 270 276 283 289 290 292 296 299 299 299 300 303 306 310 311 314 320 323 323 325 323 322
207 213 217 222 224 223 224 227 227 229 233 233 233 231 227 231 236 239 241 241 242 240 236 236 240 242 243 244 245 246 246 244 244 241 232 225 230 238 242 243 239 233 237 245 248 243 232 225 226 231 235 238 241 248 256 260 264 265 263 262 262 262 265 270 274 278 281 283 286 290 294 296 300 305 309 309 309 311 314 318 319 319 319 318 319
208 218 223 227 230 229 229 230 229 232 235 235 237 237 236 239 241 241 242 241 241 241 240 239 240 240 241 241 241 245 246 245 244 238 228 224 230 238 242 243 242 238 237 238 236 234 235 234 233 235 237 239 242 247 254 260 263 265 266 267 267 269 271 273 274 277 279 281 284 288 293 298 302 306 308 307 307 308 310 312 312 312 311 310 314
215 220 223 225 229 230 232 233 234 235 236 237 238 237 237 242 246 245 244 243 242 241 240 239 238 238 240 241 242 246 249 247 243 234 228 227 230 235 237 237 239 239 238 238 234 234 242 246 244 244 245 246 248 251 256 261 264 267 269 270 271 273 275 276 277 280 281 283 285 289 294 297 298 300 304 303 301 300 300 300 301 301 300 302 310
212 214 218 223 227 230 234 236 236 237 237 238 240 239 239 244 247 246 245 243 243 243 242 242 241 241 243 244 244 247 248 248 244 237 234 232 233 237 239 238 240 239 237 237 238 238 242 247 249 251 254 255 258 260 263 265 266 269 272 274 275 276 277 278 280 282 282 283 285 288 292 294 294 299 301 298 293 288 282 278 280 284 289 299 308
212 213 216 221 225 230 236 240 240 240 242 242 241 241 244 247 249 250 249 246 243 242 242 244 246 247 248 247 246 245 246 247 246 243 241 239 239 242 243 241 242 243 239 238 239 240 242 244 246 251 255 258 262 265 267 267 268 269 271 274 276 277 277 278 279 280 280 282 284 285 287 290 293 296 294 288 285 282 273 268 270 278 290 302 309
214 217 218 221 226 231 238 245 247 246 247 249 247 246 249 251 251 253 254 251 248 246 243 243 245 249 251 250 248 247 247 247 247 246 246 245 245 245 243 237 237 241 242 240 239 240 242 244 248 252 256 261 266 269 270 269 268 268 270 274 277 276 275 275 275 276 277 278 277 278 280 283 285 283 277 273 277 278 271 269 274 283 294 304 309
169 190 203 210 214 218 224 234 241 239 239 245 247 247 250 251 251 251 253 254 256 255 250 245 244 245 247 247 246 248 247 244 242 242 242 243 246 245 240 235 236 239 242 242 241 241 244 247 250 254 259 265 269 272 272 269 267 268 272 276 277 276 274 274 274 275 275 273 270 269 270 269 264 258 256 259 265 269 269 275 284 292 299 304 306
122 128 142 164 183 198 205 214 229 229 229 236 240 242 247 249 249 250 252 255 258 258 256 253 248 248 251 251 247 247 248 244 241 239 237 238 242 243 240 238 240 242 243 244 245 245 247 249 252 255 261 266 270 272 271 270 270 271 274 276 276 275 275 277 277 275 273 272 269 263 255 245 238 239 247 254 260 267 276 285 291 294 297 298 297
111 113 117 121 140 170 177 167 124 58 57 261 248 243 246 250 252 254 255 258 260 259 259 261 263 264 264 259 251 250 251 252 253 250 244 240 240 241 240 239 241 243 245 247 248 247 247 251 254 258 262 266 269 271 270 269 270 271 273 274 275 276 277 276 274 272 272 270 262 246 233 230 233 239 248 259 267 272 278 283 287 290 290 290 290
106 107 116 123 125 128 126 119 106 92 84 79 84 114 168 210 231 244 252 254 249 243 243 252 267 264 244 232 241 252 256 259 261 260 255 249 246 246 244 240 240 242 244 246 247 244 244 250 256 259 262 265 267 268 267 267 268 269 271 273 273 274 272 268 266 267 264 253 238 227 224 229 237 246 257 268 274 279 282 284 283 282 282 284 289
110 118 133 139 137 132 130 123 114 107 101 98 104 114 117 120 120 106 95 98 115 141 162 154 153 184 190 198 229 250 257 260 260 262 262 258 254 251 245 238 237 240 242 245 249 251 248 247 251 255 259 263 265 264 264 265 267 266 266 266 266 265 263 261 260 256 245 232 225 224 228 237 252 269 276 279 288 302 310 304 293 284 278 274 277
125 133 144 151 151 149 144 130 116 111 108 108 112 114 112 113 113 111 109 108 106 105 102 95 94 98 95 102 196 244 256 254 255 260 260 255 251 247 239 233 234 239 242 244 250 257 255 245 242 246 250 255 260 262 263 264 263 258 255 255 256 257 256 253 249 240 227 221 222 229 245 265 285 292 293 297 310 323 326 317 302 289 284 281 282
137 138 144 151 157 161 159 150 139 124 116 122 124 115 111 113 109 108 116 121 118 116 112 100 85 77 73 70 76 91 96 97 94 93 153 220 232 234 235 238 240 245 253 256 256 259 254 238 227 228 235 244 252 256 256 253 247 241 243 250 253 248 240 236 232 226 224 228 232 245 267 283 292 297 302 308 316 323 324 317 305 293 289 288 287
133 140 147 148 152 161 165 163 161 160 164 175 163 135 119 115 108 107 116 119 113 110 110 108 96 72 63 67 81 99 100 97 94 92 93 94 90 91 93 86 133 254 283 285 274 272 271 259 238 226 229 236 243 245 241 235 232 234 242 247 242 231 225 225 224 224 229 235 241 253 264 275 287 295 301 308 315 320 320 315 308 302 297 294 288
128 140 153 154 152 159 168 169 171 177 189 196 188 166 150 142 140 143 139 121 96 76 56 40 23 18 41 65 87 109 104 94 93 93 97 99 89 71 44 2 344 330 313 292 275 272 278 286 287 267 240 234 234 232 227 225 226 230 235 234 226 221 222 224 226 228 234 238 245 253 263 276 288 295 303 311 316 317 314 309 306 304 301 298 297
141 150 163 166 162 166 181 193 198 203 207 206 204 201 198 211 230 202 184 179 179 185 15 14 6 358 346 303 288 291 288 292 304 313 311 317 321 315 307 305 305 305 305 294 271 258 256 259 258 250 241 233 225 217 213 213 216 220 223 220 216 219 226 229 230 234 238 240 244 253 266 280 292 302 311 315 315 312 307 304 304 304 303 305 306
158 164 176 184 182 185 205 221 225 232 230 217 213 223 230 238 250 224 208 209 216 222 223 244 324 328 321 296 286 295 297 296 299 297 292 295 301 301 300 300 299 299 298 291 274 264 262 256 246 243 239 231 218 208 205 208 211 212 214 216 219 227 233 233 232 233 234 239 250 264 281 296 308 318 322 323 320 315 311 311 312 312 312 313 314
178 179 184 189 191 196 216 236 247 268 276 259 261 289 283 264 170 192 212 218 220 221 227 240 259 274 282 278 275 281 287 289 292 292 291 291 294 297 298 297 294 294 293 284 272 267 257 235 221 213 216 220 214 207 207 214 215 212 209 210 217 223 225 222 223 230 239 255 273 289 304 317 325 329 328 325 324 325 327 328 327 325 323 323 325
201 200 195 190 188 190 205 237 256 266 274 284 298 311 321 18 69 84 135 190 217 238 254 271 272 273 280 284 285 286 286 286 287 289 290 292 294 296 299 298 295 293 285 276 272 251 175 170 168 149 134 139 166 179 180 181 187 189 186 185 191 200 209 218 228 247 268 284 297 308 318 324 327 328 327 327 331 333 333 332 332 332 333 335 336
218 219 217 216 216 219 231 251 260 256 259 275 288 292 296 346 44 61 76 80 69 44 9 22 24 4 336 324 314 304 298 296 295 294 295 295 295 296 299 300 297 285 251 242 239 188 169 167 167 157 141 128 127 137 142 140 147 161 174 183 192 202 221 242 263 282 293 301 308 314 318 322 324 325 325 325 327 326 323 325 329 332 334 335 337
219 224 228 233 236 236 240 249 252 249 256 264 260 251 267 324 28 56 61 68 70 50 27 36 38 29 20 9 358 353 346 336 331 325 315 296 285 290 304 141 160 168 162 160 172 172 169 169 170 163 153 142 135 138 144 144 146 154 163 170 178 188 221 259 278 290 297 305 311 315 318 321 321 320 316 311 310 311 314 320 325 327 329 332 335
214 218 221 225 226 220 217 217 213 218 240 248 247 250 264 262 152 132 82 66 58 7 1 21 22 14 10 13 22 30 31 21 17 18 12 346 264 178 151 154 166 169 164 168 175 167 165 171 174 169 166 163 160 165 171 169 171 179 187 196 209 224 240 254 267 278 289 300 307 311 314 316 315 312 307 301 300 304 309 313 317 320 323 326 328
224 226 223 213 199 194 195 189 182 181 189 205 226 240 231 207 191 202 235 273 306 304 317 344 354 355 356 5 24 39 47 48 48 47 35 18 349 191 179 177 182 180 173 174 183 179 178 184 189 193 199 204 206 213 220 224 225 229 234 240 245 251 260 268 277 285 292 297 301 304 307 307 305 300 296 294 297 300 303 307 311 314 317 318 320
230 233 237 230 210 205 201 187 176 179 184 188 205 220 219 211 211 227 241 259 274 273 286 310 327 335 339 346 5 26 33 32 35 43 42 30 360 239 210 204 205 202 196 195 201 210 216 220 222 228 234 237 240 243 245 249 253 255 257 261 264 268 274 280 285 290 294 298 300 302 302 301 297 291 288 287 291 295 299 302 306 309 311 313 315
241 242 244 231 214 212 212 199 188 192 190 185 196 210 213 211 219 232 238 248 262 269 275 283 288 306 321 328 335 346 345 333 327 327 326 327 322 298 266 248 237 227 220 218 216 221 229 234 235 241 246 249 252 255 256 259 263 265 267 270 273 277 281 285 288 291 294 297 299 299 298 297 294 291 288 287 288 292 295 299 302 305 307 309 311
249 252 253 243 228 221 220 220 227 232 220 204 205 210 209 209 217 225 232 244 257 263 262 263 269 284 301 307 308 311 311 309 307 308 310 314 313 298 274 262 258 252 246 242 240 240 241 243 245 248 252 256 260 263 264 265 266 267 269 273 276 278 281 283 285 287 289 291 292 292 292 292 292 292 292 292 293 294 296 298 300 301 302 303 305
249 250 253 256 253 245 236 233 236 239 236 232 229 227 227 229 229 227 233 247 256 258 256 259 268 277 284 290 296 301 304 308 311 313 316 319 314 291 265 255 255 257 256 254 254 253 253 255 257 259 260 262 265 267 268 270 270 270 272 273 274 276 277 278 279 280 282 284 286 287 288 289 290 290 291 291 292 293 294 296 297 299 300 301 302
255 252 250 252 256 256 252 248 245 244 244 243 240 236 235 239 239 234 235 243 251 256 259 261 264 270 273 278 285 293 301 309 314 315 312 307 300 284 266 254 251 254 258 259 261 262 263 264 266 268 270 272 274 275 277 279 280 281 281 280 280 280 280 280 280 280 280 280 281 282 284 285 286 286 287 288 289 291 292 293 295 296 297 299 300
260 256 253 252 252 254 255 253 251 249 246 242 239 237 236 238 241 243 245 247 249 252 256 259 259 261 266 273 282 291 299 305 308 304 295 287 282 278 271 262 257 257 260 264 267 269 269 270 272 274 276 277 279 282 284 285 287 288 289 289 290 290 289 289 288 287 286 284 282 281 281 282 283 284 285 286 287 287 287 288 289 290 292 293 296
255 252 252 252 251 251 255 257 255 252 246 241 239 237 235 237 245 251 251 247 246 246 248 251 255 260 268 278 285 291 295 299 300 295 290 283 278 275 275 274 272 269 268 271 273 274 275 276 277 278 279 279 280 282 283 284 285 287 288 288 289 289 290 289 289 289 288 286 284 283 281 281 281 282 282 283 284 285 286 287 289 291 293 295 297
257 252 249 249 248 249 253 254 251 248 245 241 240 241 241 244 250 251 243 240 246 252 252 252 257 263 268 274 279 283 286 289 289 289 286 283 279 278 278 278 279 278 277 277 279 281 283 284 284 285 286 286 286 286 287 287 288 288 288 289 289 289 289 288 287 286 286 286 285 285 284 283 283 284 286 288 290 293 295 297 300 302 305 308 312
260 250 244 246 247 247 248 247 245 243 241 239 242 247 249 249 247 243 240 245 253 255 251 249 253 258 261 265 272 277 280 283 284 285 283 280 279 278 278 279 282 284 285 284 284 285 287 288 289 289 289 289 291 292 293 293 292 291 291 291 291 291 291 291 290 289 289 289 290 290 291 293 295 298 300 303 305 307 310 313 315 318 321 324 326
261 250 244 245 246 244 240 238 236 234 232 231 235 242 247 250 251 252 254 256 255 250 247 248 251 255 258 261 265 270 274 278 280 279 278 275 274 274 275 279 282 284 287 289 290 290 290 290 290 290 289 289 290 292 293 294 294 294 294 294 294 294 295 296 296 297 298 298 298 300 302 305 308 311 313 315 317 318 320 322 324 324 326 328 330
265 256 245 238 238 237 232 227 226 230 235 239 242 246 250 254 257 258 258 256 249 245 244 245 246 247 250 253 258 265 270 273 274 273 272 271 271 273 276 280 283 286 289 292 293 293 294 293 292 292 291 288 287 287 289 292 294 296 296 296 298 299 300 302 303 304 305 305 306 308 310 312 315 318 321 323 323 322 323 326 326 326 329 333 338
260 251 239 231 232 234 232 229 227 230 239 245 248 248 248 249 249 250 252 253 253 252 250 247 245 246 250 257 263 268 270 270 270 270 270 271 273 276 280 282 285 288 291 293 294 295 297 297 296 295 293 288 284 283 285 288 291 294 296 297 298 299 301 302 304 305 307 309 311 313 315 317 321 325 327 326 324 324 327 330 328 330 334 338 341
257 253 246 240 237 236 234 233 229 227 232 241 244 243 243 243 244 247 252 255 258 259 257 253 252 252 256 261 265 266 266 267 267 268 270 274 278 281 284 286 288 290 291 292 293 294 294 294 294 294 292 286 280 280 282 285 288 291 294 296 298 299 301 302 304 307 310 313 316 318 319 321 326 327 326 325 324 326 329 330 330 332 335 336 336
258 251 242 235 230 227 227 229 229 226 228 232 231 228 231 235 237 241 245 248 250 253 254 254 255 256 258 261 263 262 262 263 264 267 271 276 280 283 286 288 290 290 291 292 293 294 294 293 292 289 283 276 275 278 282 284 287 290 294 298 300 302 304 305 307 310 313 315 318 320 320 321 324 324 322 322 323 325 327 329 329 331 333 336 341
253 247 240 237 235 232 232 237 239 235 230 226 222 221 224 228 230 233 237 239 242 244 246 247 250 254 256 258 259 259 260 262 265 269 273 277 281 284 286 288 289 289 291 292 292 293 293 291 286 280 272 266 267 272 277 280 284 289 292 296 298 300 303 305 308 311 312 313 315 318 319 319 322 321 317 316 318 320 322 325 326 329 334 342 352
254 254 253 252 250 244 243 248 249 242 234 228 224 223 224 226 226 228 231 235 240 244 246 247 249 252 254 256 257 260 264 268 272 275 277 279 281 282 282 284 285 287 289 291 291 292 293 292 286 281 276 270 268 270 272 275 280 284 287 291 295 299 302 306 310 311 311 311 312 314 316 318 319 317 314 317 320 319 318 320 323 329 339 347 349